Spokane Fairchild, WA

6:46 AM PDT on April 19, 2018 (GMT -0700)
Fairchild Air Force Base

Weather History for KSKA - May, 2013

Change the Weather History Date:

Wednesday, May 22, 2013

  Actual Average Record
Temperature  
Mean Temperature 42 °F -  
Max Temperature 49 °F 64 °F 84 °F (2001)
Min Temperature 35 °F 43 °F 35 °F (2013)
Degree Days  
Heating Degree Days 24    
Moisture  
Dew Point 37 °F    
Average Humidity 94    
Maximum Humidity 100    
Minimum Humidity 58    
Precipitation  
Precipitation 0.06 in - - ()
Sea Level Pressure  
Sea Level Pressure 29.85 in    
Wind  
Wind Speed 9 mph (SSE)    
Max Wind Speed 17 mph    
Max Gust Speed 24 mph    
Visibility 5 miles    
Events Fog , Rain , Snow    
Averages and records for this station are not official NWS values.
T = Trace of Precipitation, MM = Missing Value Source: NWS Daily Summary

Daily Weather History Graph

Daily Weather History Graph

Search for Another Location

Airport or City:

Astronomy

May. 22, 2013 Rise Set
Actual Time 5:04 AM PDT 8:30 PM PDT
Civil Twilight 4:27 AM PDT 9:08 PM PDT
Nautical Twilight 3:37 AM PDT 9:58 PM PDT
Astronomical Twilight 2:31 AM PDT 11:05 PM PDT
Moon 5:49 PM PDT (5/22) 3:24 AM PDT (5/22)
Length of Visible Light 16h 41m
Length of Day
15h 25m
Waxing Gibbous, 92% of the Moon is Illuminated
May 22
Waxing Gibbous
May 24
Full
May 31
Last Quarter
Jun 8
New
Jun 16
First Quarter

Hourly Weather History & Observations

Time (PDT) Temp. Windchill Dew Point Humidity Pressure Visibility Wind Dir Wind Speed Gust Speed Precip Events Conditions
12:02 AM 37.4 °F 32.1 °F 37.4 °F 100% 29.78 in 0.5 mi West 6.9 mph - N/A Fog Fog
12:04 AM 37.4 °F 31.4 °F 35.6 °F 93% 29.78 in 0.5 mi West 8.1 mph - N/A Fog Fog
12:05 AM 35.6 °F 29.2 °F 35.6 °F 100% 29.78 in 0.5 mi West 8.1 mph - N/A Fog Fog
12:08 AM 35.6 °F 29.9 °F 35.6 °F 100% 29.78 in 0.2 mi West 6.9 mph - N/A Fog Fog
12:12 AM 35.6 °F 29.9 °F 35.6 °F 100% 29.78 in 0.2 mi West 6.9 mph - N/A Fog Fog
12:17 AM 35.6 °F 29.9 °F 35.6 °F 100% 29.78 in 0.2 mi West 6.9 mph - N/A Fog Fog
12:18 AM 35.6 °F 29.9 °F 35.6 °F 100% 29.78 in 0.2 mi West 6.9 mph - N/A Fog Fog
12:28 AM 35.6 °F 31.7 °F 35.6 °F 100% 29.78 in 0.2 mi WNW 4.6 mph - N/A Fog Fog
12:31 AM 37.4 °F 33.8 °F 37.4 °F 100% 29.78 in 0.2 mi WNW 4.6 mph - N/A Fog Fog
12:34 AM 37.4 °F 34.9 °F 37.4 °F 100% 29.78 in 0.2 mi NNW 3.5 mph - N/A Fog Fog
12:36 AM 37.4 °F - 37.4 °F 100% 29.78 in 0.5 mi Variable 2.3 mph - N/A Fog Fog
12:38 AM 37.4 °F - 37.4 °F 100% 29.78 in 0.5 mi Variable 2.3 mph - N/A Fog Fog
12:44 AM 37.4 °F - 37.4 °F 100% 29.79 in 0.5 mi Calm Calm - N/A Fog Fog
12:45 AM 37.4 °F - 37.4 °F 100% 29.79 in 0.8 mi Calm Calm - N/A   Mostly Cloudy
12:46 AM 37.4 °F - 37.4 °F 100% 29.79 in 0.8 mi Calm Calm - N/A   Mostly Cloudy
12:48 AM 39.2 °F - 37.4 °F 93% 29.79 in 1.0 mi SE 2.3 mph - N/A   Mostly Cloudy
12:49 AM 39.2 °F - 37.4 °F 93% 29.79 in 1.0 mi SSE 2.3 mph - N/A   Overcast
12:52 AM 37.4 °F - 37.4 °F 100% 29.79 in 1.2 mi Calm Calm - N/A   Overcast
12:53 AM 37.4 °F - 37.4 °F 100% 29.79 in 1.5 mi SE 2.3 mph - N/A   Overcast
12:56 AM 37.4 °F - 37.4 °F 100% 29.79 in 1.5 mi Calm Calm - N/A   Overcast
12:57 AM 37.4 °F - 37.4 °F 100% 29.79 in 1.5 mi ESE 1.2 mph - N/A   Overcast
12:58 AM 37.8 °F - 37.4 °F 99% 29.81 in 1.5 mi ESE 1.2 mph - 0.00 in   Overcast
12:59 AM 37.4 °F - 37.4 °F 100% 29.79 in 1.8 mi SSE 2.3 mph - N/A   Overcast
1:01 AM 37.4 °F - 37.4 °F 100% 29.79 in 2.0 mi Calm Calm - N/A   Overcast
1:02 AM 37.4 °F - 37.4 °F 100% 29.79 in 2.5 mi ESE 1.2 mph - N/A   Overcast
1:03 AM 37.4 °F - 37.4 °F 100% 29.79 in 3.0 mi ESE 1.2 mph - N/A   Overcast
1:28 AM 39.2 °F 35.0 °F 39.2 °F 100% 29.79 in 10.0 mi SSE 5.8 mph - N/A   Overcast
1:29 AM 39.2 °F 35.0 °F 39.2 °F 100% 29.79 in 10.0 mi SSE 5.8 mph - N/A   Overcast
1:52 AM 41.0 °F 34.3 °F 41.0 °F 100% 29.79 in 10.0 mi South 11.5 mph - N/A   Overcast
1:58 AM 41.0 °F 34.3 °F 40.8 °F 99% 29.80 in 10.0 mi South 11.5 mph - 0.00 in   Overcast
2:01 AM 41.0 °F 32.8 °F 41.0 °F 100% 29.79 in 10.0 mi South 16.1 mph 19.6 mph N/A   Overcast
2:06 AM 41.0 °F 32.8 °F 41.0 °F 100% 29.79 in 10.0 mi SSE 16.1 mph - N/A   Overcast
2:14 AM 41.0 °F 32.5 °F 39.2 °F 93% 29.80 in 10.0 mi SSE 17.3 mph - N/A   Overcast
2:40 AM 39.2 °F 30.5 °F 39.2 °F 100% 29.80 in 6.0 mi South 16.1 mph - N/A   Overcast
2:42 AM 39.2 °F 30.8 °F 39.2 °F 100% 29.80 in 3.0 mi South 15.0 mph - N/A   Overcast
2:43 AM 39.2 °F 31.2 °F 39.2 °F 100% 29.80 in 2.5 mi South 13.8 mph - N/A   Overcast
2:44 AM 39.2 °F 31.6 °F 39.2 °F 100% 29.80 in 1.8 mi South 12.7 mph - N/A   Overcast
2:45 AM 39.2 °F 31.6 °F 39.2 °F 100% 29.80 in 1.5 mi South 12.7 mph - N/A   Overcast
2:46 AM 39.2 °F 32.0 °F 39.2 °F 100% 29.80 in 1.2 mi South 11.5 mph - N/A   Overcast
2:47 AM 39.2 °F 32.0 °F 39.2 °F 100% 29.80 in 1.0 mi South 11.5 mph - N/A   Mist
2:48 AM 39.2 °F 32.5 °F 39.2 °F 100% 29.80 in 0.8 mi South 10.4 mph - N/A   Mist
2:49 AM 39.2 °F 32.5 °F 39.2 °F 100% 29.80 in 0.8 mi South 10.4 mph - N/A   Mist
2:50 AM 39.2 °F 32.5 °F 39.2 °F 100% 29.80 in 0.8 mi South 10.4 mph - N/A   Mist
2:51 AM 39.2 °F 32.0 °F 39.2 °F 100% 29.80 in 0.8 mi South 11.5 mph - N/A   Mist
2:54 AM 39.2 °F 32.5 °F 39.2 °F 100% 29.80 in 0.5 mi South 10.4 mph - N/A Fog Fog
2:57 AM 39.2 °F 32.5 °F 39.2 °F 100% 29.80 in 0.5 mi South 10.4 mph - N/A Fog Fog
2:58 AM 39.6 °F 32.5 °F 39.2 °F 99% 29.83 in 0.5 mi South 11.5 mph - 0.00 in Fog Fog
3:06 AM 39.2 °F 30.8 °F 39.2 °F 100% 29.80 in 0.5 mi SSE 15.0 mph - N/A Fog Light Drizzle
3:07 AM 39.2 °F 30.5 °F 39.2 °F 100% 29.80 in 0.5 mi SSE 16.1 mph - N/A Fog Fog
3:08 AM 39.2 °F 30.2 °F 39.2 °F 100% 29.80 in 0.5 mi SSE 17.3 mph - N/A Fog Light Drizzle
3:20 AM 39.2 °F 31.6 °F 37.4 °F 93% 29.80 in 0.8 mi SSE 12.7 mph - N/A   Mist
3:21 AM 39.2 °F 32.0 °F 37.4 °F 93% 29.80 in 0.8 mi SSE 11.5 mph - N/A   Mist
3:22 AM 39.2 °F 31.6 °F 37.4 °F 93% 29.80 in 0.8 mi SSE 12.7 mph - N/A   Mist
3:23 AM 39.2 °F 31.2 °F 37.4 °F 93% 29.80 in 1.0 mi SSE 13.8 mph - N/A   Mist
3:24 AM 39.2 °F 31.6 °F 37.4 °F 93% 29.80 in 1.2 mi SSE 12.7 mph - N/A   Overcast
3:25 AM 39.2 °F 32.0 °F 37.4 °F 93% 29.80 in 1.8 mi SSE 11.5 mph - N/A   Overcast
3:26 AM 39.2 °F 32.5 °F 37.4 °F 93% 29.80 in 2.5 mi SSE 10.4 mph - N/A   Overcast
3:27 AM 39.2 °F 32.5 °F 37.4 °F 93% 29.80 in 3.0 mi SSE 10.4 mph - N/A   Overcast
3:31 AM 39.2 °F 31.6 °F 37.4 °F 93% 29.80 in 4.0 mi SSE 12.7 mph - N/A   Overcast
3:34 AM 39.2 °F 32.0 °F 37.4 °F 93% 29.80 in 2.5 mi SSE 11.5 mph - N/A   Overcast
3:35 AM 39.2 °F 32.0 °F 37.4 °F 93% 29.80 in 2.0 mi SSE 11.5 mph - N/A   Overcast
3:36 AM 39.2 °F 32.0 °F 37.4 °F 93% 29.80 in 1.5 mi South 11.5 mph - N/A   Overcast
3:37 AM 39.2 °F 32.5 °F 37.4 °F 93% 29.80 in 1.2 mi South 10.4 mph - N/A   Overcast
3:39 AM 39.2 °F 33.6 °F 37.4 °F 93% 29.80 in 1.0 mi SSE 8.1 mph - N/A   Mist
3:40 AM 39.2 °F 33.6 °F 37.4 °F 93% 29.80 in 0.8 mi SSE 8.1 mph - N/A   Mist
3:42 AM 39.2 °F 33.0 °F 37.4 °F 93% 29.80 in 0.8 mi SSE 9.2 mph - N/A   Mist
3:43 AM 39.2 °F 33.6 °F 37.4 °F 93% 29.81 in 0.8 mi South 8.1 mph - N/A   Mist
3:45 AM 39.2 °F 32.0 °F 37.4 °F 93% 29.80 in 0.8 mi South 11.5 mph - N/A   Mist
3:46 AM 39.2 °F 32.5 °F 37.4 °F 93% 29.80 in 0.8 mi SSE 10.4 mph - N/A   Mist
3:48 AM 37.4 °F 29.8 °F 37.4 °F 100% 29.81 in 1.0 mi SSE 11.5 mph - N/A   Mist
3:49 AM 37.4 °F 30.3 °F 37.4 °F 100% 29.81 in 1.2 mi SSE 10.4 mph - N/A   Overcast
3:50 AM 37.4 °F 29.8 °F 37.4 °F 100% 29.81 in 1.5 mi South 11.5 mph - N/A   Overcast
3:51 AM 37.4 °F 29.8 °F 37.4 °F 100% 29.81 in 1.8 mi South 11.5 mph - N/A   Overcast
3:52 AM 37.4 °F 29.8 °F 37.4 °F 100% 29.81 in 2.5 mi SSE 11.5 mph - N/A   Overcast
3:53 AM 37.4 °F 29.8 °F 37.4 °F 100% 29.81 in 4.0 mi SSE 11.5 mph - N/A   Overcast
3:54 AM 37.4 °F 29.8 °F 37.4 °F 100% 29.81 in 5.0 mi South 11.5 mph - N/A   Overcast
3:57 AM 37.4 °F 30.3 °F 37.4 °F 100% 29.81 in 9.0 mi SSE 10.4 mph - N/A   Overcast
3:58 AM 37.9 °F 30.9 °F 37.8 °F 99% 29.85 in 9.0 mi SSE 10.4 mph - 0.00 in   Overcast
4:04 AM 37.4 °F 30.8 °F 37.4 °F 100% 29.81 in 9.0 mi SSE 9.2 mph - N/A   Overcast
4:15 AM 37.4 °F 29.8 °F 37.4 °F 100% 29.81 in 5.0 mi South 11.5 mph - N/A   Overcast
4:19 AM 37.4 °F 30.8 °F 37.4 °F 100% 29.81 in 2.5 mi SSE 9.2 mph - N/A   Overcast
4:20 AM 37.4 °F 30.8 °F 37.4 °F 100% 29.81 in 2.5 mi SSE 9.2 mph - N/A   Overcast
4:21 AM 37.4 °F 30.8 °F 37.4 °F 100% 29.81 in 2.0 mi SSE 9.2 mph - N/A   Overcast
4:22 AM 37.4 °F 30.8 °F 37.4 °F 100% 29.81 in 1.8 mi SSE 9.2 mph - N/A   Overcast
4:23 AM 37.4 °F 31.4 °F 37.4 °F 100% 29.81 in 1.5 mi SSE 8.1 mph - N/A   Overcast
4:25 AM 37.4 °F 29.8 °F 37.4 °F 100% 29.81 in 1.2 mi SSE 11.5 mph - N/A   Overcast
4:30 AM 37.4 °F 29.3 °F 37.4 °F 100% 29.81 in 1.0 mi SSE 12.7 mph - N/A   Mist
4:32 AM 37.4 °F 28.2 °F 37.4 °F 100% 29.81 in 1.0 mi SSE 16.1 mph - N/A   Mist
4:33 AM 37.4 °F 28.2 °F 37.4 °F 100% 29.81 in 1.0 mi SSE 16.1 mph - N/A   Mist
4:40 AM 37.4 °F 28.5 °F 37.4 °F 100% 29.82 in 0.8 mi SSE 15.0 mph - N/A   Mist
4:41 AM 37.4 °F 28.9 °F 37.4 °F 100% 29.82 in 1.0 mi SSE 13.8 mph - N/A   Mist
4:42 AM 37.4 °F 28.5 °F 37.4 °F 100% 29.82 in 1.0 mi SSE 15.0 mph - N/A   Mist
4:43 AM 37.4 °F 28.2 °F 37.4 °F 100% 29.81 in 1.2 mi SSE 16.1 mph - N/A   Overcast
4:46 AM 37.4 °F 28.5 °F 37.4 °F 100% 29.81 in 1.5 mi SSE 15.0 mph - N/A   Overcast
4:50 AM 37.4 °F 28.2 °F 37.4 °F 100% 29.81 in 1.2 mi South 16.1 mph - N/A   Overcast
4:51 AM 37.4 °F 28.2 °F 37.4 °F 100% 29.81 in 1.0 mi South 16.1 mph - N/A   Mist
4:52 AM 37.4 °F 28.5 °F 37.4 °F 100% 29.81 in 0.8 mi South 15.0 mph - N/A   Mist
4:53 AM 37.4 °F 28.5 °F 37.4 °F 100% 29.81 in 0.8 mi South 15.0 mph - N/A   Mist
4:54 AM 37.4 °F 28.5 °F 37.4 °F 100% 29.81 in 0.5 mi SSE 15.0 mph - N/A Fog Fog
4:55 AM 37.4 °F 28.5 °F 37.4 °F 100% 29.81 in 0.5 mi SSE 15.0 mph - N/A Fog Fog
4:56 AM 37.4 °F 28.2 °F 37.4 °F 100% 29.81 in 0.5 mi SSE 16.1 mph - N/A Fog Fog
4:58 AM 37.4 °F 29.3 °F 37.4 °F 100% 29.85 in 0.5 mi SSE 12.7 mph - 0.00 in Fog Fog
5:06 AM 37.4 °F 27.8 °F 37.4 °F 100% 29.81 in 0.8 mi South 17.3 mph - N/A Snow Light Snow
5:07 AM 37.4 °F 28.2 °F 37.4 °F 100% 29.81 in 0.8 mi South 16.1 mph - N/A Snow Light Snow
5:08 AM 37.4 °F 28.5 °F 37.4 °F 100% 29.81 in 1.0 mi South 15.0 mph - N/A Snow Light Snow
5:09 AM 37.4 °F 28.5 °F 37.4 °F 100% 29.81 in 1.2 mi South 15.0 mph - N/A Snow Light Snow
5:10 AM 37.4 °F 28.5 °F 37.4 °F 100% 29.81 in 1.5 mi South 15.0 mph - N/A Snow Light Snow
5:11 AM 37.4 °F 28.5 °F 37.4 °F 100% 29.81 in 2.0 mi South 15.0 mph - N/A Snow Light Snow
5:12 AM 37.4 °F 28.5 °F 37.4 °F 100% 29.81 in 3.0 mi SSE 15.0 mph - N/A Snow Light Snow
5:17 AM 37.4 °F 28.9 °F 35.6 °F 93% 29.81 in 2.0 mi SSE 13.8 mph - N/A Snow Light Snow
5:18 AM 37.4 °F 28.5 °F 35.6 °F 93% 29.81 in 1.5 mi SSE 15.0 mph - N/A Snow Light Snow
5:19 AM 37.4 °F 28.5 °F 35.6 °F 93% 29.81 in 1.0 mi SSE 15.0 mph - N/A Snow Light Snow
5:20 AM 37.4 °F 28.9 °F 35.6 °F 93% 29.81 in 0.8 mi SSE 13.8 mph - N/A Snow Light Snow
5:22 AM 37.4 °F 28.2 °F 35.6 °F 93% 29.81 in 0.5 mi SSE 16.1 mph - N/A Fog , Snow Light Snow
5:23 AM 37.4 °F 28.2 °F 35.6 °F 93% 29.81 in 0.5 mi SSE 16.1 mph - N/A Fog , Snow Light Snow
5:24 AM 37.4 °F 28.5 °F 35.6 °F 93% 29.81 in 0.2 mi South 15.0 mph - N/A Fog , Snow Light Snow
5:26 AM 37.4 °F 29.3 °F 35.6 °F 93% 29.81 in 0.2 mi SSE 12.7 mph - N/A Fog , Snow Light Snow
5:29 AM 37.4 °F 28.5 °F 35.6 °F 93% 29.81 in 0.2 mi South 15.0 mph - N/A Fog , Snow Light Snow
5:34 AM 37.4 °F 27.8 °F 35.6 °F 93% 29.81 in 0.2 mi South 17.3 mph - N/A Fog , Snow Light Snow
5:36 AM 35.6 °F 25.5 °F 35.6 °F 100% 29.81 in 0.2 mi South 17.3 mph - N/A Fog , Snow Light Snow
5:37 AM 35.6 °F 25.9 °F 35.6 °F 100% 29.81 in 0.5 mi South 16.1 mph - N/A Fog , Snow Light Snow
5:40 AM 35.6 °F 26.2 °F 35.6 °F 100% 29.81 in 0.8 mi SSE 15.0 mph - N/A Snow Light Snow
5:42 AM 35.6 °F 26.6 °F 35.6 °F 100% 29.81 in 1.2 mi South 13.8 mph - N/A Snow Light Snow
5:43 AM 35.6 °F 26.6 °F 35.6 °F 100% 29.81 in 1.8 mi South 13.8 mph - N/A Snow Light Snow
5:44 AM 35.6 °F 25.9 °F 35.6 °F 100% 29.81 in 3.0 mi South 16.1 mph 21.9 mph N/A Snow Light Snow
5:57 AM 35.6 °F 26.2 °F 35.6 °F 100% 29.81 in 10.0 mi South 15.0 mph 24.2 mph N/A Snow Light Snow
5:58 AM 36.3 °F 27.1 °F 36.0 °F 99% 29.86 in 10.0 mi South 15.0 mph 24.2 mph 0.00 in Snow Light Snow
6:13 AM 35.6 °F 27.1 °F 35.6 °F 100% 29.82 in 7.0 mi South 12.7 mph - N/A   Overcast
6:27 AM 35.6 °F 26.6 °F 35.6 °F 100% 29.82 in 3.0 mi South 13.8 mph - N/A Rain Light Rain
6:29 AM 35.6 °F 28.0 °F 35.6 °F 100% 29.82 in 2.5 mi South 10.4 mph - N/A Rain Light Rain
6:35 AM 35.6 °F 27.1 °F 35.6 °F 100% 29.82 in 3.0 mi South 12.7 mph - N/A Rain Light Rain
6:37 AM 35.6 °F 26.6 °F 35.6 °F 100% 29.82 in 4.0 mi South 13.8 mph - N/A   Overcast
6:58 AM 36.0 °F 29.0 °F 35.8 °F 99% 29.86 in 9.0 mi South 9.2 mph - 0.00 in   Overcast
7:14 AM 35.6 °F 26.6 °F 35.6 °F 100% 29.83 in 5.0 mi South 13.8 mph 20.7 mph N/A   Overcast
7:24 AM 35.6 °F 26.6 °F 35.6 °F 100% 29.83 in 10.0 mi South 13.8 mph - N/A   Overcast
7:49 AM 35.6 °F 27.1 °F 35.6 °F 100% 29.85 in 10.0 mi SSE 12.7 mph - N/A   Overcast
7:58 AM 36.1 °F 27.3 °F 35.8 °F 99% 29.90 in 10.0 mi South 13.8 mph - 0.00 in Snow Light Snow
8:29 AM 35.6 °F 28.6 °F 35.6 °F 100% 29.86 in 10.0 mi SSE 9.2 mph 18.4 mph N/A Snow Light Snow
8:42 AM 37.4 °F 29.8 °F 35.6 °F 93% 29.86 in 10.0 mi SSE 11.5 mph - N/A Snow Light Snow
8:51 AM 37.4 °F 30.3 °F 35.6 °F 93% 29.86 in 10.0 mi SSE 10.4 mph - N/A Rain Light Rain
8:56 AM 37.4 °F 31.4 °F 35.6 °F 93% 29.87 in 10.0 mi SSE 8.1 mph - N/A Rain Light Rain
8:58 AM 36.7 °F 30.5 °F 36.0 °F 97% 29.91 in 10.0 mi SSE 8.1 mph - 0.01 in Rain Light Rain
9:10 AM 37.4 °F 30.3 °F 35.6 °F 93% 29.87 in 10.0 mi SSE 10.4 mph - N/A Snow Light Snow
9:17 AM 37.4 °F 30.8 °F 35.6 °F 93% 29.87 in 10.0 mi South 9.2 mph - N/A Snow Light Snow
9:43 AM 37.4 °F 29.3 °F 37.4 °F 100% 29.87 in 10.0 mi South 12.7 mph - N/A Rain Light Rain
9:58 AM 37.9 °F 30.9 °F 36.5 °F 95% 29.91 in 10.0 mi South 10.4 mph - 0.01 in Rain Light Rain
10:10 AM 39.2 °F 33.6 °F 37.4 °F 93% 29.87 in 10.0 mi SSE 8.1 mph - N/A Rain Light Rain
10:22 AM 39.2 °F 32.5 °F 37.4 °F 93% 29.88 in 10.0 mi SSE 10.4 mph - N/A   Overcast
10:32 AM 39.2 °F 33.6 °F 35.6 °F 87% 29.88 in 10.0 mi SSE 8.1 mph - N/A Rain Light Rain
10:37 AM 39.2 °F 33.6 °F 37.4 °F 93% 29.88 in 10.0 mi SSE 8.1 mph - N/A Rain Light Rain
10:42 AM 39.2 °F 32.5 °F 37.4 °F 93% 29.88 in 10.0 mi South 10.4 mph - N/A Rain Light Rain
10:58 AM 39.9 °F 33.4 °F 37.2 °F 90% 29.94 in 10.0 mi SSE 10.4 mph - 0.01 in Rain Light Rain
11:37 AM 41.0 °F 34.3 °F 37.4 °F 87% 29.90 in 10.0 mi South 11.5 mph - N/A Rain Light Rain
11:47 AM 39.2 °F 32.0 °F 37.4 °F 93% 29.90 in 10.0 mi SSE 11.5 mph - N/A Rain Light Rain
11:51 AM 39.2 °F 32.0 °F 37.4 °F 93% 29.90 in 10.0 mi South 11.5 mph - N/A Rain Light Rain
11:58 AM 39.6 °F 33.0 °F 37.0 °F 91% 29.95 in 10.0 mi South 10.4 mph - 0.01 in Rain Light Rain
12:03 PM 39.2 °F 31.6 °F 37.4 °F 93% 29.90 in 10.0 mi South 12.7 mph - N/A Rain Light Rain
12:06 PM 39.2 °F 32.5 °F 37.4 °F 93% 29.91 in 10.0 mi SSE 10.4 mph - N/A Rain Light Rain
12:07 PM 39.2 °F 33.6 °F 37.4 °F 93% 29.91 in 10.0 mi SSE 8.1 mph - N/A Rain Light Rain
12:14 PM 39.2 °F 32.0 °F 37.4 °F 93% 29.91 in 10.0 mi SSE 11.5 mph - N/A   Overcast
12:15 PM 39.2 °F 31.6 °F 37.4 °F 93% 29.91 in 10.0 mi SSE 12.7 mph - N/A   Overcast
12:40 PM 41.0 °F 37.1 °F 37.4 °F 87% 29.91 in 10.0 mi SSE 5.8 mph - N/A   Overcast
12:42 PM 41.0 °F 36.4 °F 37.4 °F 87% 29.91 in 10.0 mi South 6.9 mph - N/A   Overcast
12:48 PM 41.0 °F 35.2 °F 37.4 °F 87% 29.92 in 10.0 mi SE 9.2 mph - N/A   Overcast
12:58 PM 40.5 °F 35.8 °F 36.7 °F 86% 29.96 in 10.0 mi SSE 6.9 mph - 0.01 in   Overcast
1:00 PM 41.0 °F 35.8 °F 37.4 °F 87% 29.91 in 10.0 mi SSE 8.1 mph - N/A   Overcast
1:03 PM 41.0 °F 37.1 °F 37.4 °F 87% 29.91 in 10.0 mi SE 5.8 mph - N/A   Overcast
1:04 PM 41.0 °F 37.1 °F 37.4 °F 87% 29.91 in 10.0 mi SE 5.8 mph - N/A   Overcast
1:06 PM 41.0 °F 35.8 °F 37.4 °F 87% 29.91 in 10.0 mi SE 8.1 mph - N/A Rain Light Rain
1:07 PM 41.0 °F 35.8 °F 37.4 °F 87% 29.91 in 10.0 mi SE 8.1 mph - N/A Rain Light Rain
1:08 PM 41.0 °F 35.8 °F 37.4 °F 87% 29.91 in 10.0 mi SE 8.1 mph - N/A Rain Light Rain
1:09 PM 41.0 °F 35.8 °F 37.4 °F 87% 29.92 in 10.0 mi SE 8.1 mph - N/A Rain Light Rain
1:10 PM 41.0 °F 36.4 °F 37.4 °F 87% 29.92 in 10.0 mi SE 6.9 mph - N/A Rain Light Rain
1:12 PM 41.0 °F 36.4 °F 37.4 °F 87% 29.92 in 10.0 mi ESE 6.9 mph - N/A Rain Light Rain
1:14 PM 41.0 °F 37.1 °F 37.4 °F 87% 29.92 in 10.0 mi SE 5.8 mph - N/A Rain Light Rain
1:19 PM 41.0 °F 35.2 °F 37.4 °F 87% 29.92 in 10.0 mi SE 9.2 mph - N/A Rain Light Rain
1:25 PM 41.0 °F 35.8 °F 37.4 °F 87% 29.93 in 8.0 mi South 8.1 mph - N/A Rain Light Rain
1:29 PM 41.0 °F 37.1 °F 37.4 °F 87% 29.93 in 7.0 mi SSE 5.8 mph - N/A   Overcast
1:35 PM 41.0 °F 35.8 °F 37.4 °F 87% 29.92 in 9.0 mi SE 8.1 mph - N/A   Light Drizzle
1:45 PM 41.0 °F 34.7 °F 37.4 °F 87% 29.93 in 10.0 mi SE 10.4 mph - N/A Rain Light Rain
1:47 PM 41.0 °F 36.4 °F 37.4 °F 87% 29.93 in 10.0 mi ESE 6.9 mph - N/A Rain Light Rain
1:51 PM 41.0 °F 38.0 °F 37.4 °F 87% 29.93 in 8.0 mi SE 4.6 mph - N/A Rain Light Rain
1:58 PM 41.0 °F 38.0 °F 37.2 °F 86% 29.98 in 10.0 mi South 4.6 mph - 0.01 in Rain Light Rain
2:05 PM 42.8 °F 41.1 °F 37.4 °F 81% 29.92 in 10.0 mi South 3.5 mph - N/A Rain Light Rain
2:06 PM 42.8 °F 40.1 °F 37.4 °F 81% 29.92 in 10.0 mi South 4.6 mph - N/A Rain Light Rain
2:20 PM 44.6 °F 40.7 °F 37.4 °F 76% 29.92 in 10.0 mi South 6.9 mph - N/A   Light Drizzle
2:22 PM 44.6 °F 40.7 °F 37.4 °F 76% 29.92 in 10.0 mi South 6.9 mph - N/A   Light Drizzle
2:24 PM 44.6 °F 40.7 °F 37.4 °F 76% 29.93 in 10.0 mi South 6.9 mph - N/A   Overcast
2:33 PM 44.6 °F 42.2 °F 35.6 °F 71% 29.92 in 10.0 mi SE 4.6 mph - N/A   Overcast
2:43 PM 42.8 °F 38.6 °F 37.4 °F 81% 29.93 in 10.0 mi South 6.9 mph - N/A   Overcast
2:46 PM 42.8 °F 38.0 °F 37.4 °F 81% 29.93 in 10.0 mi SSE 8.1 mph - N/A Rain Light Rain
2:55 PM 42.8 °F 38.0 °F 35.6 °F 76% 29.93 in 10.0 mi South 8.1 mph - N/A   Overcast
2:58 PM 43.7 °F 39.1 °F 36.5 °F 76% 29.97 in 10.0 mi South 8.1 mph - 0.00 in   Overcast
3:58 PM 45.5 °F - 34.7 °F 66% 29.98 in 10.0 mi Calm Calm - N/A   Overcast
4:58 PM 48.0 °F - 36.0 °F 63% 29.98 in 10.0 mi Variable 1.2 mph - N/A   Overcast
5:58 PM 47.7 °F - 34.2 °F 60% 29.97 in 10.0 mi SE 2.3 mph - N/A   Overcast
6:58 PM 47.1 °F - 32.9 °F 58% 29.99 in 10.0 mi ENE 2.3 mph - N/A   Mostly Cloudy
7:22 PM 42.8 °F 36.2 °F 37.4 °F 81% 29.96 in 10.0 mi SSE 12.7 mph - N/A   Overcast
7:54 PM 41.0 °F 36.4 °F 37.4 °F 87% 29.97 in 10.0 mi South 6.9 mph - N/A   Mostly Cloudy
7:58 PM 41.0 °F 37.1 °F 37.4 °F 87% 30.02 in 10.0 mi South 5.8 mph - 0.00 in   Mostly Cloudy
8:58 PM 39.7 °F - 37.2 °F 91% 30.02 in 10.0 mi ENE 2.3 mph - N/A   Clear
9:58 PM 36.9 °F 31.4 °F 36.1 °F 97% 30.04 in 10.0 mi NE 6.9 mph - N/A   Clear
9:59 PM 37.4 °F 32.1 °F 35.6 °F 93% 29.98 in 10.0 mi NE 6.9 mph - N/A   Clear
10:09 PM 37.4 °F 31.4 °F 35.6 °F 93% 29.98 in 10.0 mi NE 8.1 mph - N/A   Clear
10:58 PM 36.0 °F 33.3 °F 35.6 °F 99% 30.03 in 10.0 mi ENE 3.5 mph - 0.00 in   Clear
11:58 PM 35.6 °F 31.7 °F 35.2 °F 99% 30.04 in 10.0 mi NNE 4.6 mph - N/A   Clear